SCP
0 1 1 1 1 1 1 1 1 1 1 1 1 1 1 1 1 2 1 1 1 1 2 2 2 2 1 1 1 1 1 1 1 1 1 1 1 1 1 1 1 1 0
0 1 1 1 1 1 1 1 1 1 1 1 1 1 1 1 1 1 2 1 1 2 2 2 2 2 2 1 1 1 1 1 1 2 2 2 1 1 1 1 1 1 0
0 1 1 1 1 1 1 1 1 1 1 1 1 1 1 1 1 1 1 2 1 1 1 2 2 2 2 2 2 2 2 2 2 2 2 2 1 1 1 1 1 0 0
1 1 1 1 1 1 1 1 0 0 0 0 0 1 1 1 1 1 1 1 1 1 1 1 2 2 2 2 2 2 2 2 2 2 2 2 1 1 1 1 1 0 0
0 1 1 2 1 1 1 1 1 1 1 1 1 1 1 1 1 1 1 1 1 1 1 1 2 2 2 2 2 2 2 2 2 1 1 1 1 1 1 1 1 0 0
0 1 1 2 2 1 1 1 1 1 1 1 1 1 1 1 1 1 1 1 1 1 1 1 1 1 2 2 1 1 1 1 1 1 1 1 1 1 1 1 1 0 0
0 1 1 2 2 1 1 1 1 1 1 1 1 1 1 1 1 1 1 1 1 1 1 1 1 1 1 1 1 1 1 1 1 1 1 1 1 1 1 1 1 1 1
1 1 1 2 2 1 1 1 1 1 1 1 1 1 1 1 1 1 1 1 1 1 1 1 1 1 1 1 1 1 1 1 1 1 1 1 1 1 0 0 0 1 1
1 1 1 1 1 1 1 1 1 1 1 1 1 1 1 1 1 1 1 1 1 1 1 2 1 1 1 1 1 1 1 1 1 1 1 1 1 1 1 1 1 1 1
1 1 1 1 1 1 1 1 1 1 1 1 1 1 1 1 1 1 1 1 1 1 1 2 2 2 1 1 1 1 1 1 1 1 1 1 1 1 1 1 1 1 1
1 1 1 1 1 1 1 1 1 1 1 1 1 1 1 1 1 1 1 1 1 1 1 1 2 2 2 1 1 1 1 1 1 1 1 1 1 1 1 1 1 1 1
1 1 1 1 1 1 1 1 1 1 1 1 1 1 1 1 1 1 1 1 1 1 1 1 2 2 2 1 1 1 1 1 1 1 1 1 1 1 1 1 1 1 1
1 1 1 1 1 1 0 0 1 1 1 1 1 1 1 1 1 1 1 1 1 1 1 1 1 2 2 1 1 1 1 1 1 1 1 1 1 1 1 1 1 1 1
1 1 1 1 1 1 0 0 1 1 1 1 1 1 1 1 1 1 1 1 1 1 1 1 1 1 2 1 1 1 1 1 1 1 1 1 1 1 1 1 1 1 1
1 1 1 1 1 1 0 0 1 1 1 1 1 1 1 1 1 1 1 1 1 1 1 1 1 1 1 1 1 1 1 1 1 1 1 1 1 1 1 1 1 1 1
1 1 1 1 1 1 1 1 1 1 1 1 1 1 1 1 1 1 1 1 1 1 1 1 1 1 1 1 1 1 1 1 1 1 1 1 1 1 1 1 1 1 1
1 1 1 1 1 1 1 1 1 1 1 1 0 0 1 1 1 1 1 1 1 1 1 1 1 1 1 1 1 1 1 1 1 1 1 1 1 1 1 1 1 1 1
1 1 1 1 1 1 1 1 1 1 1 1 0 0 0 1 1 1 1 1 1 1 1 1 1 1 1 1 1 1 1 1 1 1 1 1 1 1 1 1 1 2 2
1 1 1 2 2 2 1 1 1 1 1 1 1 0 1 1 1 1 1 1 1 1 1 1 1 1 1 1 1 1 1 1 1 1 1 1 1 1 1 1 1 2 2
1 1 1 2 2 2 1 1 1 1 1 1 1 1 1 1 1 1 1 1 1 1 1 1 1 1 1 1 1 1 1 1 1 1 1 1 1 1 1 1 1 1 2
1 1 1 2 2 2 1 1 1 1 1 1 1 1 1 1 2 2 2 2 2 2 2 2 2 2 1 1 1 1 1 1 1 1 1 1 1 1 1 1 1 1 1
1 1 1 2 2 1 1 1 1 1 1 2 2 2 2 2 2 3 3 3 3 2 2 2 2 2 2 1 1 1 1 1 1 1 1 1 1 1 1 1 1 1 1
1 1 2 2 1 1 1 1 1 1 1 1 1 1 2 2 3 3 3 3 3 3 3 2 3 2 2 2 2 2 1 1 1 1 0 0 1 1 1 1 1 1 1
2 2 2 2 1 1 1 1 1 1 1 1 1 1 1 2 2 3 3 3 3 3 3 3 3 3 2 2 2 2 2 1 1 1 1 0 0 1 1 1 1 1 1
3 3 3 2 2 1 1 1 1 1 1 1 1 1 1 1 1 2 2 3 3 3 3 3 3 2 2 2 2 2 2 2 2 1 1 0 0 1 1 0 0 0 0
4 3 3 3 2 2 1 1 1 1 1 1 1 1 1 1 1 1 2 2 2 2 2 3 2 2 2 2 2 2 2 2 2 1 1 0 0 1 0 0 0 0 0
Wind_Speed
1 3 8 9 9 10 11 12 12 11 12 12 13 13 12 12 12 12 11 11 10 10 9 9 9 9 9 9 8 8 8 8 8 8 9 8 8 8 8 9 8 6 8
3 5 9 10 10 11 11 12 12 11 12 12 12 12 11 11 11 11 11 10 10 10 9 9 8 8 8 8 8 8 8 8 8 8 8 7 7 8 8 8 8 5 8
4 5 8 11 10 11 11 11 11 11 11 11 11 10 10 10 10 10 10 9 9 9 9 8 8 8 8 8 8 8 8 8 7 7 6 4 4 6 7 7 8 8 9
6 5 7 11 11 11 11 11 10 10 11 10 10 9 9 9 9 9 9 9 8 8 8 8 8 8 8 7 7 6 6 7 7 6 3 3 3 6 6 7 7 8 9
5 4 6 12 11 10 10 10 9 9 10 9 9 9 8 8 8 8 8 8 8 8 8 8 8 8 7 7 6 6 6 6 6 4 3 2 2 5 6 7 7 8 8
4 4 6 11 10 10 9 9 8 8 8 8 8 8 8 8 7 7 7 7 7 7 7 7 7 7 6 6 5 5 5 5 4 3 3 2 2 4 5 6 7 7 8
4 3 5 10 10 10 9 8 8 7 7 7 7 7 7 7 7 7 7 7 6 7 7 7 7 6 6 5 5 5 5 5 3 3 3 3 3 4 4 5 6 6 7
5 4 4 9 9 9 9 8 7 7 6 6 6 6 6 6 6 7 6 6 6 6 6 6 6 6 5 5 5 5 4 4 3 3 3 3 4 4 5 5 6 7 7
4 3 3 4 6 8 8 8 7 6 6 6 6 5 5 5 6 6 6 5 5 5 5 5 5 5 5 5 5 4 4 4 2 2 3 3 4 6 6 6 6 7 8
3 2 2 3 3 3 4 7 7 6 5 5 5 5 5 5 5 6 5 5 5 5 5 5 4 5 5 4 4 4 4 3 1 2 2 3 6 6 7 7 7 7 8
2 1 2 2 3 2 2 4 5 5 4 4 3 4 3 1 1 2 4 5 5 5 5 5 5 4 4 3 4 4 3 1 1 1 2 4 6 7 7 7 7 8 8
2 2 2 3 3 2 2 2 1 1 1 1 1 1 1 1 1 2 2 4 4 5 5 5 5 4 3 1 2 3 1 2 2 2 2 4 5 6 6 7 7 8 8
3 3 3 3 3 3 1 1 1 1 0 1 1 1 1 1 0 0 0 1 2 2 1 2 2 1 1 1 1 1 2 2 1 2 2 4 4 4 5 5 6 7 7
3 3 3 3 3 3 2 1 1 1 1 1 1 1 1 1 1 1 1 1 1 0 1 1 1 1 1 2 2 2 2 2 2 2 2 4 5 5 5 5 5 6 7
4 3 3 3 3 3 2 2 2 1 1 1 1 1 2 2 2 1 1 1 1 1 1 1 1 1 1 1 2 3 3 3 3 3 2 4 5 6 6 6 6 6 7
4 4 3 3 3 3 3 2 2 2 2 1 1 2 2 2 2 2 2 1 1 1 1 1 1 1 1 1 2 2 3 3 3 3 3 3 6 6 6 6 6 7 7
5 4 3 4 3 3 4 3 2 2 2 2 2 2 3 3 3 2 2 1 2 1 1 1 1 1 1 1 2 2 2 3 3 3 3 3 3 6 7 8 7 7 7
3 3 3 4 3 3 3 3 2 2 2 2 2 2 3 3 3 2 2 2 2 1 1 1 1 1 1 1 2 2 2 2 3 3 3 3 3 3 4 7 7 7 7
3 3 3 2 3 3 3 2 2 1 1 1 1 2 2 3 3 3 2 2 2 1 1 1 1 1 1 1 1 1 1 2 3 3 4 4 3 3 3 4 6 6 7
3 3 3 2 2 2 2 1 1 0 1 1 1 2 2 2 3 3 2 2 2 1 1 1 1 1 1 1 1 1 1 2 2 3 4 3 3 4 4 4 3 4 6
3 3 3 2 2 2 1 1 1 1 1 1 1 1 2 2 3 3 2 2 2 2 2 2 1 1 1 1 1 1 1 1 2 2 2 2 3 3 3 3 3 3 3
4 4 3 3 3 3 2 2 1 1 1 1 1 0 1 2 2 3 3 2 2 2 2 2 2 1 1 1 1 1 1 2 1 1 1 2 2 2 3 4 4 4 3
5 6 5 4 4 3 2 1 1 1 1 1 1 1 1 1 2 2 3 3 2 2 2 2 3 3 2 1 1 2 2 2 2 2 1 1 1 1 2 2 3 4 4
6 5 4 3 3 3 3 3 3 2 2 2 1 1 1 0 1 2 2 3 2 2 2 3 3 2 3 2 1 1 2 2 1 2 2 1 1 2 2 2 2 3 3
5 4 4 3 3 3 3 4 3 2 2 1 0 0 1 1 1 1 2 2 2 2 3 2 2 2 2 2 2 1 1 1 1 2 2 2 1 2 2 3 2 2 3
5 4 4 3 3 3 3 3 4 4 2 1 1 1 0 0 1 1 1 1 2 2 2 2 2 2 2 2 2 2 2 2 2 2 3 2 2 2 2 2 2 2 2
Wind_Direction
190 167 153 150 145 140 139 141 140 141 139 137 139 141 142 143 146 150 151 150 150 148 147 147 146 146 147 145 146 147 146 144 143 142 144 148 149 151 155 155 151 150 147
151 151 154 151 145 141 139 140 141 140 140 138 139 142 146 147 149 151 153 155 154 151 150 149 150 149 149 147 149 152 151 149 147 147 148 153 158 159 162 164 165 159 156
136 148 152 149 146 143 142 140 140 142 140 140 141 144 147 148 150 151 154 156 155 153 150 151 151 150 151 150 151 154 157 156 156 153 150 145 157 163 165 169 171 168 163
143 146 151 152 149 146 143 143 143 142 142 145 147 145 148 151 152 153 155 155 155 154 153 154 153 153 154 153 154 155 154 160 161 162 150 152 165 169 170 172 173 174 171
139 143 155 154 151 150 148 147 146 145 146 150 152 151 153 154 155 155 156 157 157 156 157 158 155 156 156 155 155 155 158 162 164 162 143 152 169 182 181 176 173 174 175
138 145 158 154 152 152 150 149 149 150 151 155 157 158 160 159 158 157 158 160 161 162 162 161 160 161 160 160 161 162 163 165 161 151 155 165 181 198 190 186 181 175 176
145 150 159 158 157 156 154 155 157 159 159 159 161 165 164 166 165 162 161 159 160 166 167 166 167 169 168 165 168 169 172 176 161 168 176 180 188 197 196 194 186 182 182
144 148 155 162 161 161 160 160 165 167 164 162 163 165 167 170 172 172 172 169 168 169 169 170 173 176 173 173 176 179 184 188 176 185 186 194 195 205 207 199 190 192 190
130 138 148 155 161 164 166 168 172 174 169 168 169 173 176 179 183 181 180 178 181 181 177 177 183 184 185 185 187 189 191 193 169 191 199 201 204 211 215 212 203 197 193
111 131 145 143 145 151 162 173 176 173 168 172 178 180 187 191 190 193 191 190 192 195 195 194 195 199 198 196 198 196 199 207 195 213 214 212 214 218 219 218 211 205 199
118 130 146 136 130 134 151 177 180 179 176 176 182 187 190 190 188 198 202 200 202 208 212 210 208 209 207 216 215 205 205 195 196 229 232 229 223 223 222 221 215 208 205
166 171 151 142 143 141 168 161 153 169 160 156 146 170 128 114 182 198 221 218 220 227 231 228 221 218 213 200 218 213 205 208 211 227 232 237 232 230 227 223 217 212 209
175 171 159 159 156 156 164 149 120 111 117 152 174 165 134 122 184 248 249 267 260 252 258 252 244 222 189 175 194 200 210 223 222 233 239 233 229 235 232 222 213 212 211
161 177 170 167 161 166 160 158 146 156 175 199 203 184 161 166 203 231 237 255 256 235 218 223 215 223 203 201 203 202 211 218 227 233 237 232 224 224 231 227 213 212 214
178 188 184 174 172 172 167 182 176 188 198 206 203 203 187 191 208 218 230 228 234 220 216 219 221 224 218 218 211 202 213 220 227 235 240 233 230 226 229 226 221 219 213
194 196 185 180 186 175 180 187 195 198 202 198 210 212 197 196 203 205 226 232 231 222 217 211 222 223 223 209 221 217 221 224 224 229 238 244 245 241 238 228 221 219 215
198 195 186 185 180 179 188 195 191 191 190 205 216 211 204 202 203 202 212 234 241 226 214 209 229 220 225 212 226 228 223 227 225 235 244 247 254 250 243 226 222 222 221
185 187 196 186 173 181 186 179 170 171 181 215 221 214 213 209 201 196 204 230 231 207 191 197 220 221 232 229 238 241 234 230 234 242 247 244 246 250 244 231 227 224 220
191 184 190 190 171 176 173 164 162 158 176 208 215 219 217 207 198 191 201 216 200 180 190 210 199 203 220 232 235 237 237 237 241 246 246 242 238 240 244 237 231 227 223
189 183 190 185 167 161 150 133 121 146 229 225 222 226 214 200 192 189 201 204 184 171 179 182 183 198 208 207 239 262 258 247 240 242 241 240 236 235 236 238 237 232 224
184 186 192 185 177 148 145 172 184 225 236 238 234 227 215 200 186 181 190 188 181 183 192 176 163 166 211 161 126 337 306 269 246 243 237 237 241 236 231 232 231 230 227
192 196 192 191 180 177 187 190 186 186 211 222 279 264 225 206 190 186 182 186 183 176 176 170 158 152 178 154 148 110 340 337 328 289 241 230 242 238 238 235 223 218 219
203 204 202 194 185 183 179 148 104 65 33 27 339 309 275 223 201 190 188 186 180 176 187 193 177 170 185 190 173 162 170 242 310 320 296 262 252 235 239 230 223 219 214
211 206 204 191 188 180 161 160 161 169 201 227 231 260 320 294 224 198 192 186 186 186 192 205 184 179 176 196 193 189 198 183 207 302 320 306 272 247 248 234 224 221 213
202 198 195 177 182 178 166 174 179 194 214 223 119 339 328 330 307 244 180 173 183 193 202 201 183 179 184 196 195 180 176 204 217 211 273 298 294 257 245 237 223 217 209
191 187 180 174 190 185 174 174 183 190 187 158 208 232 262 322 338 322 203 184 191 196 203 204 197 191 205 207 205 197 195 196 202 201 226 251 260 261 242 232 225 223 216